Flag for U.S.A. Weather past 2 weeks in Newport News, Virginia, U.S.A.

Now
78 °F

Passing clouds.


Feels Like: 79 °F
Forecast: 64 / 76 °F
Wind: 8 mph from East

Location: Newport News / Williamsburg International Airport

Current Time: Sep 18, 2014 at 12:51:27 PM

Latest Report: Sep 18, 2014 at 11:54 AM


Visibility: 10 mi

Pressure: 30.02 "Hg

Humidity: 43%

Dew point: 54 °F

Location of Newport NewsLocation

Historic Weather in Newport News — Graph

°F

Newport News temperature yesterday

Maximum temperature yesterday: 79 °F (at 11:54 AM)
Minimum temperature yesterday: 63 °F (at 11:54 PM)
Average temperature yesterday: 72 °F

Past Weeks' High & Low Weather Summary

 TemperatureHumidityPressure
High95 °F (Sep 6, 3:54 PM)88% (Sep 4, 12:54 AM)30.28 "Hg (Sep 4, 12:54 AM)
Low58 °F (Sep 18, 6:54 AM)46% (Sep 6, 2:54 PM)29.90 "Hg (Sep 11, 4:54 PM)
Average77 °F72%30.07 "Hg
* Reported Sep 3 10:54 AM — Sep 18 10:54 AM, Newport News, Weather by CustomWeather, © 2014

Note: Actual official high and low records may vary slightly from our data, if they occured in-between our weather recording intervals... More about our weather records

Advertising

Newport News weather history for previous 24 hours

 ConditionsComfort  
Time TempWeatherWind HumidityBarometerVisibility
10:54 AM
Sep 18
78 °FSunny.7 mph48%30.02 "Hg10 mi
9:54 AM77 °FSunny.7 mph54%30.01 "Hg10 mi
8:54 AM73 °FSunny.No wind69%30.00 "Hg10 mi
7:54 AM63 °FSunny.No wind87%29.99 "Hg7 mi
6:54 AM58 °FClear.No wind87%29.98 "Hg7 mi
5:54 AM61 °FClear.No wind83%29.97 "Hg9 mi
4:54 AM61 °FClear.No wind83%29.95 "Hg9 mi
3:54 AM60 °FClear.3 mph86%29.94 "Hg9 mi
2:54 AM61 °FClear.3 mph87%29.95 "Hg8 mi
1:54 AM61 °FClear.No wind87%29.95 "Hg10 mi
12:54 AM62 °FClear.No wind86%29.96 "Hg9 mi
11:54 PM
Sep 17
63 °FClear.No wind87%29.97 "Hg10 mi
10:54 PM64 °FClear.No wind84%29.97 "Hg10 mi
9:54 PM64 °FClear.No wind87%29.97 "Hg10 mi
8:54 PM67 °FClear.No wind79%29.96 "Hg10 mi
7:54 PM68 °FSunny.3 mph76%29.96 "Hg10 mi
6:54 PM72 °FSunny.6 mph66%29.95 "Hg10 mi
5:54 PM76 °FSunny.8 mph58%29.96 "Hg10 mi
4:54 PM77 °FPassing clouds.8 mph56%29.95 "Hg10 mi
3:54 PM79 °FPassing clouds.12 mph56%29.95 "Hg10 mi
2:54 PM78 °FOvercast.9 mph58%29.96 "Hg10 mi
1:54 PM77 °FScattered clouds.10 mph56%29.98 "Hg10 mi
12:54 PM78 °FPartly sunny.8 mph54%30.00 "Hg10 mi
Weather by CustomWeather, © 2014

See weather overviewHow to use our weather pages